This is the latest recevied weather packets stored in our database for station/object N9DMT-13. If no packets are shown the sender has not sent any weather packets the latest 10 day(s).
| Time | Temp. | Humidity | Pressure | Rain* | Wind** | Luminosity | Snow |
|---|---|---|---|---|---|---|---|
| 1778077878 | 8.89° C | 47% | 983.1 hPa | 0 mm | - | - | - |
| 1778077578 | 8.89° C | 47% | 983.1 hPa | 0 mm | - | - | - |
| 1778077277 | 8.89° C | 51% | 983 hPa | 0 mm | - | - | - |
| 1778076976 | 8.33° C | 51% | 983.1 hPa | 0 mm | - | - | - |
| 1778076675 | 7.78° C | 50% | 983 hPa | 0 mm | - | - | - |
| 1778076374 | 7.78° C | 49% | 982.8 hPa | 0 mm | - | - | - |
| 1778076073 | 7.78° C | 51% | 982.8 hPa | 0 mm | - | - | - |
| 1778075772 | 7.22° C | 50% | 983 hPa | 0 mm | - | - | - |
| 1778075472 | 7.22° C | 50% | 982.8 hPa | 0 mm | - | - | - |
| 1778075171 | 6.67° C | 51% | 983 hPa | 0 mm | - | - | - |
| 1778074870 | 6.67° C | 52% | 982.9 hPa | 0 mm | - | - | - |
| 1778074569 | 7.22° C | 51% | 982.8 hPa | 0 mm | - | - | - |
| 1778074269 | 7.22° C | 54% | 982.7 hPa | 0 mm | - | - | - |
| 1778073968 | 7.22° C | 51% | 982.7 hPa | 0 mm | - | - | - |
| 1778073667 | 7.22° C | 54% | 982.7 hPa | 0 mm | - | - | - |
| 1778073366 | 6.67° C | 55% | 982.5 hPa | 0 mm | - | - | - |
| 1778073065 | 6.67° C | 55% | 982.7 hPa | 0 mm | - | - | - |
| 1778072764 | 6.11° C | 56% | 982.5 hPa | 0 mm | - | - | - |
| 1778072463 | 5.56° C | 57% | 982.4 hPa | 0 mm | - | - | - |
| 1778072163 | 5.56° C | 57% | 982.3 hPa | 0 mm | - | - | - |
| 1778071862 | 5° C | 59% | 982.3 hPa | 0 mm | - | - | - |
| 1778071561 | 5° C | 59% | 982.4 hPa | 0 mm | - | - | - |
| 1778071260 | 5° C | 59% | 982.1 hPa | 0 mm | - | - | - |
| 1778070959 | 5° C | 60% | 981.9 hPa | 0 mm | - | - | - |
| 1778070658 | 5° C | 64% | 982.1 hPa | 0 mm | - | - | - |
* Rain latest hour (hover to see other rain measurements)
** Current wind speed in m/s (hover to see current wind gust speed)